DW7002 Weather Reports


Display with metric or nautical units.
time (UTC)temp
F
wind
direction
speed
MPH
gust
MPH
rain 1hr
in
rain 24hr
in
rain mn
in
humidity
%
barometer
mb
20260505163121 77 128 2.0 10.0 0.00 0.00 0.00 47 1017.7
20260505162133 77 309 1.0 6.0 0.00 0.00 0.00 47 1017.7
20260505161125 77 169 3.0 6.0 0.00 0.00 0.00 48 1018.0
20260505160119 76 159 2.0 7.0 0.00 0.00 0.00 50 1018.1
20260505153134 74 293 4.0 6.0 0.00 0.00 0.00 53 1018.2
20260505152129 74 220 2.0 6.0 0.00 0.00 0.00 54 1018.2
20260505151122 73 306 2.0 6.0 0.00 0.00 0.00 55 1018.2
20260505150114 72 304 4.0 9.0 0.00 0.00 0.00 57 1018.2
20260505140133 67 253 2.0 6.0 0.00 0.00 0.00 67 1018.2
20260505130126 62 284 4.0 7.0 0.00 0.00 0.00 74 1018.1
20260505124154 60 284 2.0 6.0 0.00 0.00 0.00 77 1017.9
20260505123145 60 269 3.0 5.0 0.00 0.00 0.00 77 1017.9
20260505122117 59 286 2.0 3.0 0.00 0.00 0.00 78 1018.1
20260505121129 58 306 1.0 3.0 0.00 0.00 0.00 79 1018.0
20260505120127 58 279 1.0 4.0 0.00 0.00 0.00 79 1017.9
20260505115117 57 278 1.0 4.0 0.00 0.00 0.00 80 1017.8
20260505114131 56 271 2.0 3.0 0.00 0.00 0.00 80 1017.7
20260505113128 56 5 1.0 2.0 0.00 0.00 0.00 81 1017.7
20260505112142 55 261 0.0 0.0 0.00 0.00 0.00 81 1017.5
20260505111134 55 261 0.0 0.0 0.00 0.00 0.00 81 1017.7
20260505110124 55 261 0.0 0.0 0.00 0.00 0.00 81 1017.6
20260505102120 56 286 0.0 0.0 0.00 0.00 0.00 79 1017.3
20260505101134 56 286 0.0 0.0 0.00 0.00 0.00 78 1017.3
20260505100124 57 286 0.0 0.0 0.00 0.00 0.00 77 1017.2
20260505095115 57 286 0.0 4.0 0.00 0.00 0.00 76 1017.1
20260505094132 57 286 1.0 5.0 0.00 0.00 0.00 76 1016.9
20260505093146 57 263 1.0 4.0 0.00 0.00 0.00 76 1016.8
20260505092116 57 207 0.0 1.0 0.00 0.00 0.00 77 1016.7
20260505091148 57 207 1.0 1.0 0.00 0.00 0.00 76 1016.7
20260505090144 57 187 1.0 2.0 0.00 0.00 0.00 76 1016.7
20260505085133 57 187 0.0 1.0 0.00 0.00 0.00 75 1016.5
20260505084125 58 136 0.0 0.0 0.00 0.00 0.00 75 1016.5
20260505083119 58 136 0.0 0.0 0.00 0.00 0.00 74 1016.6
20260505082116 59 136 0.0 0.0 0.00 0.00 0.00 73 1016.5
20260505081128 59 136 0.0 2.0 0.00 0.00 0.00 73 1016.5
20260505080119 59 255 1.0 2.0 0.00 0.00 0.00 72 1016.5
20260505075130 59 250 1.0 2.0 0.00 0.00 0.00 72 1016.4
20260505074127 60 298 1.0 4.0 0.00 0.00 0.00 71 1016.3
20260505073120 60 344 1.0 4.0 0.00 0.00 0.00 70 1016.3
20260505072133 60 284 1.0 4.0 0.00 0.00 0.00 70 1016.3
20260505071149 60 271 1.0 6.0 0.00 0.00 0.00 70 1016.1
20260505070119 60 261 1.0 3.0 0.00 0.00 0.00 69 1016.1
20260505065129 61 272 1.0 4.0 0.00 0.00 0.00 69 1016.2
20260505064122 61 259 1.0 4.0 0.00 0.00 0.00 69 1016.2
20260505063120 61 259 1.0 3.0 0.00 0.00 0.00 68 1016.1
20260505062134 61 271 2.0 6.0 0.00 0.00 0.00 68 1016.0
20260505061125 61 237 2.0 3.0 0.00 0.00 0.00 67 1016.1
20260505060122 61 215 1.0 5.0 0.00 0.00 0.00 67 1016.1
20260505055152 61 207 1.0 6.0 0.00 0.00 0.00 66 1016.1
20260505054121 61 304 1.0 2.0 0.00 0.00 0.00 66 1016.0
20260505053134 61 269 2.0 3.0 0.00 0.00 0.00 65 1016.2
20260505052131 61 297 2.0 5.0 0.00 0.00 0.00 66 1016.2
20260505051122 59 277 2.0 4.0 0.00 0.00 0.00 67 1016.2
20260505050134 57 242 1.0 4.0 0.00 0.00 0.00 68 1016.2
20260505041140 58 222 0.0 0.0 0.00 0.00 0.00 63 1016.4
20260505040134 58 222 0.0 0.0 0.00 0.00 0.00 62 1016.4
20260505035122 58 222 0.0 0.0 0.00 0.00 0.00 62 1016.4
20260505034135 58 222 0.0 0.0 0.00 0.00 0.00 62 1016.4
20260505033132 58 222 0.0 0.0 0.00 0.00 0.00 62 1016.4
20260505032125 59 222 0.0 0.0 0.00 0.00 0.00 61 1016.4
20260505031118 59 222 0.0 0.0 0.00 0.00 0.00 59 1016.4
20260505030128 60 222 0.0 0.0 0.00 0.00 0.00 59 1016.4
20260505025123 60 222 0.0 0.0 0.00 0.00 0.00 59 1016.4
20260505024117 60 222 0.0 0.0 0.00 0.00 0.00 57 1016.3
20260505023130 61 222 0.0 0.0 0.00 0.00 0.00 57 1016.3
20260505022128 61 222 0.0 0.0 0.00 0.00 0.00 58 1016.2
20260505021120 62 222 0.0 0.0 0.00 0.00 0.00 55 1016.3
20260505020132 62 222 0.0 0.0 0.00 0.00 0.00 55 1016.2
20260505015122 63 222 0.0 0.0 0.00 0.00 0.00 56 1016.0
20260505014139 63 222 0.0 0.0 0.00 0.00 0.00 54 1016.0
20260505013131 63 222 0.0 0.0 0.00 0.00 0.00 54 1015.9
20260505012124 64 222 0.0 0.0 0.00 0.00 0.00 52 1015.6
20260505011117 65 222 0.0 0.0 0.00 0.00 0.00 52 1015.5
20260505010133 66 222 0.0 0.0 0.00 0.00 0.00 51 1015.4
20260505005125 67 222 0.0 0.0 0.00 0.00 0.00 50 1015.3
20260505004139 68 222 0.0 0.0 0.00 0.00 0.00 48 1015.2
20260505003150 69 222 0.0 0.0 0.00 0.00 0.00 47 1015.2
20260505002127 70 222 0.0 0.0 0.00 0.00 0.00 45 1015.0
20260505001121 71 222 0.0 0.0 0.00 0.00 0.00 44 1015.1
20260505000133 72 222 0.0 0.0 0.00 0.00 0.00 44 1014.9
20260504235144 73 222 0.0 0.0 0.00 0.00 0.00 43 1014.9
20260504234119 74 222 0.0 1.0 0.00 0.00 0.00 40 1014.9
20260504233131 74 222 0.0 2.0 0.00 0.00 0.00 39 1014.8
20260504232123 75 184 0.0 2.0 0.00 0.00 0.00 38 1014.9
20260504231120 76 186 0.0 1.0 0.00 0.00 0.00 39 1014.8
20260504230130 76 186 1.0 2.0 0.00 0.00 0.00 37 1014.7
20260504225121 76 261 1.0 4.0 0.00 0.00 0.00 38 1014.8
20260504224132 77 223 1.0 3.0 0.00 0.00 0.00 37 1014.8
20260504223148 77 292 2.0 5.0 0.00 0.00 0.00 36 1014.8
20260504222119 77 136 1.0 4.0 0.00 0.00 0.00 37 1014.8
20260504221133 77 300 1.0 4.0 0.00 0.00 0.00 38 1014.7
20260504220146 77 316 1.0 6.0 0.00 0.00 0.00 38 1014.8
20260504215118 77 219 2.0 4.0 0.00 0.00 0.00 38 1014.8
20260504214131 78 76 1.0 5.0 0.00 0.00 0.00 37 1014.7
20260504213124 77 278 2.0 6.0 0.00 0.00 0.00 37 1014.7
20260504212122 77 287 2.0 6.0 0.00 0.00 0.00 37 1014.7
20260504211133 77 233 1.0 5.0 0.00 0.00 0.00 38 1014.7
20260504210126 78 337 1.0 5.0 0.00 0.00 0.00 36 1014.7
20260504205114 78 244 3.0 6.0 0.00 0.00 0.00 37 1014.8
20260504204130 78 295 4.0 7.0 0.00 0.00 0.00 37 1014.8
20260504203143 77 190 3.0 5.0 0.00 0.00 0.00 39 1014.9
20260504202116 77 278 3.0 6.0 0.00 0.00 0.00 39 1015.0
20260504201128 77 284 4.0 8.0 0.00 0.00 0.00 38 1015.1
20260504200143 77 291 2.0 5.0 0.00 0.00 0.00 38 1015.2
20260504195132 77 307 0.0 4.0 0.00 0.00 0.00 38 1015.3
20260504194123 77 213 1.0 6.0 0.00 0.00 0.00 39 1015.4
20260504193115 77 209 2.0 5.0 0.00 0.00 0.00 39 1015.7
20260504192132 78 254 2.0 6.0 0.00 0.00 0.00 37 1015.9
20260504191125 78 159 2.0 6.0 0.00 0.00 0.00 37 1016.0
20260504190119 77 273 1.0 8.0 0.00 0.00 0.00 38 1016.1
20260504185128 77 123 3.0 8.0 0.00 0.00 0.00 37 1016.2
20260504184125 78 167 2.0 3.0 0.00 0.00 0.00 37 1016.1
20260504183118 77 144 2.0 5.0 0.00 0.00 0.00 37 1016.3
20260504182130 76 112 1.0 5.0 0.00 0.00 0.00 38 1016.3
20260504181128 75 181 3.0 7.0 0.00 0.00 0.00 38 1016.4
20260504180122 75 269 3.0 8.0 0.00 0.00 0.00 38 1016.5
20260504175133 75 307 6.0 9.0 0.00 0.00 0.00 38 1016.7
20260504174124 75 288 1.0 7.0 0.00 0.00 0.00 38 1016.6
20260504173122 74 194 1.0 7.0 0.00 0.00 0.00 41 1016.6
20260504172115 73 133 2.0 10.0 0.00 0.00 0.00 38 1016.9
20260504171129 73 254 2.0 6.0 0.00 0.00 0.00 39 1016.9
20260504170124 73 279 3.0 6.0 0.00 0.00 0.00 40 1016.9